owner,sensor,date,latitude,longitude,air_temperature,qcFlag 
COMPS,ioos:station:USF.COMPS:C10:1,2019-08-01T00:35:00,27.1690,-82.9260,25.62,11111222 
COMPS,ioos:station:USF.COMPS:C10:1,2019-08-01T01:35:00,27.1690,-82.9260,26.39,11111222 
COMPS,ioos:station:USF.COMPS:C10:1,2019-08-01T02:35:00,27.1690,-82.9260,28.07,11111222 
COMPS,ioos:station:USF.COMPS:C10:1,2019-08-01T03:35:00,27.1690,-82.9260,28.05,11111222 
COMPS,ioos:station:USF.COMPS:C10:1,2019-08-01T04:35:00,27.1690,-82.9260,27.07,11111222 
COMPS,ioos:station:USF.COMPS:C10:1,2019-08-01T05:35:00,27.1690,-82.9260,28.01,11111222 
COMPS,ioos:station:USF.COMPS:C10:1,2019-08-01T06:35:00,27.1690,-82.9260,28.45,11111222 
COMPS,ioos:station:USF.COMPS:C10:1,2019-08-01T07:35:00,27.1690,-82.9260,28.81,11111222 
COMPS,ioos:station:USF.COMPS:C10:1,2019-08-01T09:35:00,27.1690,-82.9260,26.91,11111222 
COMPS,ioos:station:USF.COMPS:C10:1,2019-08-01T10:35:00,27.1690,-82.9260,27.58,11111222 
COMPS,ioos:station:USF.COMPS:C10:1,2019-08-01T11:35:00,27.1690,-82.9260,27.56,11111222 
COMPS,ioos:station:USF.COMPS:C10:1,2019-08-01T14:35:00,27.1690,-82.9260,27.68,11111222 
COMPS,ioos:station:USF.COMPS:C10:1,2019-08-01T16:35:00,27.1690,-82.9260,28.55,11111222 
COMPS,ioos:station:USF.COMPS:C10:1,2019-08-01T18:35:00,27.1690,-82.9260,29.42,11111222 
COMPS,ioos:station:USF.COMPS:C10:1,2019-08-01T19:35:00,27.1690,-82.9260,28.68,11111222 
COMPS,ioos:station:USF.COMPS:C10:1,2019-08-01T20:35:00,27.1690,-82.9260,28.99,11111222 
COMPS,ioos:station:USF.COMPS:C10:1,2019-08-01T21:35:00,27.1690,-82.9260,29.14,11111222 
COMPS,ioos:station:USF.COMPS:C10:1,2019-08-01T23:35:00,27.1690,-82.9260,25.35,11111222 
COMPS,ioos:station:USF.COMPS:C10:1,2019-08-02T00:35:00,27.1690,-82.9260,26.66,11111222 
COMPS,ioos:station:USF.COMPS:C10:1,2019-08-02T01:35:00,27.1690,-82.9260,26.86,11111222 
COMPS,ioos:station:USF.COMPS:C10:1,2019-08-02T02:35:00,27.1690,-82.9260,26.75,11111222 
COMPS,ioos:station:USF.COMPS:C10:1,2019-08-02T03:35:00,27.1690,-82.9260,26.85,11111222 
COMPS,ioos:station:USF.COMPS:C10:1,2019-08-02T06:35:00,27.1690,-82.9260,26.46,11111222 
COMPS,ioos:station:USF.COMPS:C10:1,2019-08-02T07:35:00,27.1690,-82.9260,26.91,11111222 
COMPS,ioos:station:USF.COMPS:C10:1,2019-08-02T08:35:00,27.1690,-82.9260,27.16,11111222 
COMPS,ioos:station:USF.COMPS:C10:1,2019-08-02T09:35:00,27.1690,-82.9260,27.05,11111222 
COMPS,ioos:station:USF.COMPS:C10:1,2019-08-02T10:35:00,27.1690,-82.9260,26.64,11111222 
COMPS,ioos:station:USF.COMPS:C10:1,2019-08-02T11:35:00,27.1690,-82.9260,26.73,11111222 
COMPS,ioos:station:USF.COMPS:C10:1,2019-08-02T12:35:00,27.1690,-82.9260,26.84,11111222 
COMPS,ioos:station:USF.COMPS:C10:1,2019-08-02T13:35:00,27.1690,-82.9260,26.82,11111222 
COMPS,ioos:station:USF.COMPS:C10:1,2019-08-02T14:35:00,27.1690,-82.9260,25.96,11111222 
COMPS,ioos:station:USF.COMPS:C10:1,2019-08-02T15:35:00,27.1690,-82.9260,26.51,11111222 
COMPS,ioos:station:USF.COMPS:C10:1,2019-08-02T17:35:00,27.1690,-82.9260,27.74,11111222 
COMPS,ioos:station:USF.COMPS:C10:1,2019-08-02T19:35:00,27.1690,-82.9260,28.21,11111222 
COMPS,ioos:station:USF.COMPS:C10:1,2019-08-02T20:35:00,27.1690,-82.9260,28.34,11111222 
COMPS,ioos:station:USF.COMPS:C10:1,2019-08-02T21:35:00,27.1690,-82.9260,27.85,11111222 
COMPS,ioos:station:USF.COMPS:C10:1,2019-08-02T22:35:00,27.1690,-82.9260,28.18,11111222 
COMPS,ioos:station:USF.COMPS:C10:1,2019-08-02T23:35:00,27.1690,-82.9260,28.13,11111222 
COMPS,ioos:station:USF.COMPS:C10:1,2019-08-03T00:35:00,27.1690,-82.9260,28.23,11111222 
COMPS,ioos:station:USF.COMPS:C10:1,2019-08-03T01:35:00,27.1690,-82.9260,26.46,11111222 
COMPS,ioos:station:USF.COMPS:C10:1,2019-08-03T03:35:00,27.1690,-82.9260,27.03,11111222 
COMPS,ioos:station:USF.COMPS:C10:1,2019-08-03T04:35:00,27.1690,-82.9260,27.2,11111222 
COMPS,ioos:station:USF.COMPS:C10:1,2019-08-03T05:35:00,27.1690,-82.9260,27.76,11111222 
COMPS,ioos:station:USF.COMPS:C10:1,2019-08-03T06:35:00,27.1690,-82.9260,27.88,11111222 
COMPS,ioos:station:USF.COMPS:C10:1,2019-08-03T07:35:00,27.1690,-82.9260,27.98,11111222 
COMPS,ioos:station:USF.COMPS:C10:1,2019-08-03T08:35:00,27.1690,-82.9260,28.29,11111222 
COMPS,ioos:station:USF.COMPS:C10:1,2019-08-03T09:35:00,27.1690,-82.9260,28.4,11111222 
COMPS,ioos:station:USF.COMPS:C10:1,2019-08-03T10:35:00,27.1690,-82.9260,28.42,11111222 
COMPS,ioos:station:USF.COMPS:C10:1,2019-08-03T11:35:00,27.1690,-82.9260,28.45,11111222 
COMPS,ioos:station:USF.COMPS:C10:1,2019-08-03T12:35:00,27.1690,-82.9260,28.57,11111222 
COMPS,ioos:station:USF.COMPS:C10:1,2019-08-03T13:35:00,27.1690,-82.9260,28.63,11111222 
COMPS,ioos:station:USF.COMPS:C10:1,2019-08-03T14:35:00,27.1690,-82.9260,28.87,11111222 
COMPS,ioos:station:USF.COMPS:C10:1,2019-08-03T15:35:00,27.1690,-82.9260,28.9,11111222 
COMPS,ioos:station:USF.COMPS:C10:1,2019-08-03T16:35:00,27.1690,-82.9260,28.35,11111222 
COMPS,ioos:station:USF.COMPS:C10:1,2019-08-03T17:35:00,27.1690,-82.9260,29.02,11111222 
COMPS,ioos:station:USF.COMPS:C10:1,2019-08-03T18:35:00,27.1690,-82.9260,29.21,11111222 
COMPS,ioos:station:USF.COMPS:C10:1,2019-08-03T19:35:00,27.1690,-82.9260,28.89,11111222 
COMPS,ioos:station:USF.COMPS:C10:1,2019-08-03T20:35:00,27.1690,-82.9260,29.07,11111222 
COMPS,ioos:station:USF.COMPS:C10:1,2019-08-03T21:35:00,27.1690,-82.9260,29.21,11111222 
COMPS,ioos:station:USF.COMPS:C10:1,2019-08-04T00:35:00,27.1690,-82.9260,29.07,11111222 
COMPS,ioos:station:USF.COMPS:C10:1,2019-08-04T01:35:00,27.1690,-82.9260,28.93,11111222 
COMPS,ioos:station:USF.COMPS:C10:1,2019-08-04T02:35:00,27.1690,-82.9260,28.92,11111222 
COMPS,ioos:station:USF.COMPS:C10:1,2019-08-04T03:35:00,27.1690,-82.9260,28.89,11111222 
COMPS,ioos:station:USF.COMPS:C10:1,2019-08-04T04:35:00,27.1690,-82.9260,28.94,11111222 
COMPS,ioos:station:USF.COMPS:C10:1,2019-08-04T05:35:00,27.1690,-82.9260,29.02,11111222 
COMPS,ioos:station:USF.COMPS:C10:1,2019-08-04T06:35:00,27.1690,-82.9260,28.94,11111222 
COMPS,ioos:station:USF.COMPS:C10:1,2019-08-04T07:35:00,27.1690,-82.9260,29.0,11111222 
COMPS,ioos:station:USF.COMPS:C10:1,2019-08-04T08:35:00,27.1690,-82.9260,28.97,11111222 
COMPS,ioos:station:USF.COMPS:C10:1,2019-08-04T09:35:00,27.1690,-82.9260,28.87,11111222 
COMPS,ioos:station:USF.COMPS:C10:1,2019-08-04T10:35:00,27.1690,-82.9260,28.83,11111222 
COMPS,ioos:station:USF.COMPS:C10:1,2019-08-04T11:35:00,27.1690,-82.9260,28.81,11111222 
COMPS,ioos:station:USF.COMPS:C10:1,2019-08-04T12:35:00,27.1690,-82.9260,29.04,11111222 
COMPS,ioos:station:USF.COMPS:C10:1,2019-08-04T13:35:00,27.1690,-82.9260,29.16,11111222 
COMPS,ioos:station:USF.COMPS:C10:1,2019-08-04T14:35:00,27.1690,-82.9260,29.25,11111222 
COMPS,ioos:station:USF.COMPS:C10:1,2019-08-04T15:35:00,27.1690,-82.9260,29.25,11111222 
COMPS,ioos:station:USF.COMPS:C10:1,2019-08-04T16:35:00,27.1690,-82.9260,29.24,11111222 
COMPS,ioos:station:USF.COMPS:C10:1,2019-08-04T17:35:00,27.1690,-82.9260,29.55,11111222 
COMPS,ioos:station:USF.COMPS:C10:1,2019-08-04T18:35:00,27.1690,-82.9260,29.76,11111222 
COMPS,ioos:station:USF.COMPS:C10:1,2019-08-04T19:35:00,27.1690,-82.9260,29.49,11111222 
COMPS,ioos:station:USF.COMPS:C10:1,2019-08-04T20:35:00,27.1690,-82.9260,29.62,11111222 
COMPS,ioos:station:USF.COMPS:C10:1,2019-08-04T21:35:00,27.1690,-82.9260,29.41,11111222 
COMPS,ioos:station:USF.COMPS:C10:1,2019-08-04T22:35:00,27.1690,-82.9260,29.5,11111222 
COMPS,ioos:station:USF.COMPS:C10:1,2019-08-05T00:35:00,27.1690,-82.9260,29.37,11111222 
COMPS,ioos:station:USF.COMPS:C10:1,2019-08-05T01:35:00,27.1690,-82.9260,29.42,11111222 
COMPS,ioos:station:USF.COMPS:C10:1,2019-08-05T02:35:00,27.1690,-82.9260,29.47,11111222 
COMPS,ioos:station:USF.COMPS:C10:1,2019-08-05T03:35:00,27.1690,-82.9260,29.34,11111222 
COMPS,ioos:station:USF.COMPS:C10:1,2019-08-05T04:35:00,27.1690,-82.9260,29.27,11111222 
COMPS,ioos:station:USF.COMPS:C10:1,2019-08-05T05:35:00,27.1690,-82.9260,29.4,11111222 
COMPS,ioos:station:USF.COMPS:C10:1,2019-08-05T06:35:00,27.1690,-82.9260,29.19,11111222 
COMPS,ioos:station:USF.COMPS:C10:1,2019-08-05T07:35:00,27.1690,-82.9260,29.09,11111222 
COMPS,ioos:station:USF.COMPS:C10:1,2019-08-05T08:35:00,27.1690,-82.9260,28.77,11111222 
COMPS,ioos:station:USF.COMPS:C10:1,2019-08-05T09:35:00,27.1690,-82.9260,28.8,11111222 
COMPS,ioos:station:USF.COMPS:C10:1,2019-08-05T10:35:00,27.1690,-82.9260,29.36,11111222 
COMPS,ioos:station:USF.COMPS:C10:1,2019-08-05T11:35:00,27.1690,-82.9260,29.11,11111222 
COMPS,ioos:station:USF.COMPS:C10:1,2019-08-05T12:35:00,27.1690,-82.9260,29.2,11111222 
COMPS,ioos:station:USF.COMPS:C10:1,2019-08-05T13:35:00,27.1690,-82.9260,27.91,11111222 
COMPS,ioos:station:USF.COMPS:C10:1,2019-08-05T14:35:00,27.1690,-82.9260,27.85,11111222 
COMPS,ioos:station:USF.COMPS:C10:1,2019-08-05T15:35:00,27.1690,-82.9260,28.24,11111222 
COMPS,ioos:station:USF.COMPS:C10:1,2019-08-05T16:35:00,27.1690,-82.9260,28.63,11111222 
COMPS,ioos:station:USF.COMPS:C10:1,2019-08-05T17:35:00,27.1690,-82.9260,28.87,11111222 
COMPS,ioos:station:USF.COMPS:C10:1,2019-08-05T18:35:00,27.1690,-82.9260,28.89,11111222 
COMPS,ioos:station:USF.COMPS:C10:1,2019-08-05T19:35:00,27.1690,-82.9260,28.85,11111222 
COMPS,ioos:station:USF.COMPS:C10:1,2019-08-05T20:35:00,27.1690,-82.9260,29.28,11111222 
COMPS,ioos:station:USF.COMPS:C10:1,2019-08-05T21:35:00,27.1690,-82.9260,26.22,11111222 
COMPS,ioos:station:USF.COMPS:C10:1,2019-08-05T23:35:00,27.1690,-82.9260,27.44,11111222 
COMPS,ioos:station:USF.COMPS:C10:1,2019-08-06T00:35:00,27.1690,-82.9260,28.16,11111222 
COMPS,ioos:station:USF.COMPS:C10:1,2019-08-06T01:35:00,27.1690,-82.9260,28.93,11111222 
COMPS,ioos:station:USF.COMPS:C10:1,2019-08-06T02:35:00,27.1690,-82.9260,28.91,11111222 
COMPS,ioos:station:USF.COMPS:C10:1,2019-08-06T03:35:00,27.1690,-82.9260,28.8,11111222 
COMPS,ioos:station:USF.COMPS:C10:1,2019-08-06T04:35:00,27.1690,-82.9260,28.71,11111222 
COMPS,ioos:station:USF.COMPS:C10:1,2019-08-06T05:35:00,27.1690,-82.9260,28.91,11111222 
COMPS,ioos:station:USF.COMPS:C10:1,2019-08-06T07:35:00,27.1690,-82.9260,28.72,11111222 
COMPS,ioos:station:USF.COMPS:C10:1,2019-08-06T08:35:00,27.1690,-82.9260,28.78,11111222 
COMPS,ioos:station:USF.COMPS:C10:1,2019-08-06T09:35:00,27.1690,-82.9260,28.74,11111222 
COMPS,ioos:station:USF.COMPS:C10:1,2019-08-06T10:35:00,27.1690,-82.9260,28.78,11111222 
COMPS,ioos:station:USF.COMPS:C10:1,2019-08-06T11:35:00,27.1690,-82.9260,28.9,11111222 
COMPS,ioos:station:USF.COMPS:C10:1,2019-08-06T12:35:00,27.1690,-82.9260,28.75,11111222 
COMPS,ioos:station:USF.COMPS:C10:1,2019-08-06T13:35:00,27.1690,-82.9260,28.97,11111222 
COMPS,ioos:station:USF.COMPS:C10:1,2019-08-06T14:35:00,27.1690,-82.9260,28.4,11111222 
COMPS,ioos:station:USF.COMPS:C10:1,2019-08-06T15:35:00,27.1690,-82.9260,28.97,11111222 
COMPS,ioos:station:USF.COMPS:C10:1,2019-08-06T16:35:00,27.1690,-82.9260,29.13,11111222 
COMPS,ioos:station:USF.COMPS:C10:1,2019-08-06T17:35:00,27.1690,-82.9260,29.46,11111222 
COMPS,ioos:station:USF.COMPS:C10:1,2019-08-06T18:35:00,27.1690,-82.9260,29.11,11111222 
COMPS,ioos:station:USF.COMPS:C10:1,2019-08-06T19:35:00,27.1690,-82.9260,29.32,11111222 
COMPS,ioos:station:USF.COMPS:C10:1,2019-08-06T20:35:00,27.1690,-82.9260,29.55,11111222 
COMPS,ioos:station:USF.COMPS:C10:1,2019-08-06T21:35:00,27.1690,-82.9260,29.47,11111222 
COMPS,ioos:station:USF.COMPS:C10:1,2019-08-06T22:35:00,27.1690,-82.9260,29.04,11111222 
COMPS,ioos:station:USF.COMPS:C10:1,2019-08-07T00:35:00,27.1690,-82.9260,29.22,11111222 
COMPS,ioos:station:USF.COMPS:C10:1,2019-08-07T01:35:00,27.1690,-82.9260,29.13,11111222 
COMPS,ioos:station:USF.COMPS:C10:1,2019-08-07T02:35:00,27.1690,-82.9260,29.4,11111222 
COMPS,ioos:station:USF.COMPS:C10:1,2019-08-07T03:35:00,27.1690,-82.9260,28.92,11111222 
COMPS,ioos:station:USF.COMPS:C10:1,2019-08-07T04:35:00,27.1690,-82.9260,28.94,11111222 
COMPS,ioos:station:USF.COMPS:C10:1,2019-08-07T05:35:00,27.1690,-82.9260,28.94,11111222 
COMPS,ioos:station:USF.COMPS:C10:1,2019-08-07T06:35:00,27.1690,-82.9260,28.68,11111222 
COMPS,ioos:station:USF.COMPS:C10:1,2019-08-07T07:35:00,27.1690,-82.9260,28.95,11111222 
COMPS,ioos:station:USF.COMPS:C10:1,2019-08-07T08:35:00,27.1690,-82.9260,29.12,11111222 
COMPS,ioos:station:USF.COMPS:C10:1,2019-08-07T09:35:00,27.1690,-82.9260,29.05,11111222 
COMPS,ioos:station:USF.COMPS:C10:1,2019-08-07T10:35:00,27.1690,-82.9260,29.14,11111222 
COMPS,ioos:station:USF.COMPS:C10:1,2019-08-07T11:35:00,27.1690,-82.9260,29.3,11111222 
COMPS,ioos:station:USF.COMPS:C10:1,2019-08-07T12:35:00,27.1690,-82.9260,29.4,11111222 
COMPS,ioos:station:USF.COMPS:C10:1,2019-08-07T13:35:00,27.1690,-82.9260,29.37,11111222 
COMPS,ioos:station:USF.COMPS:C10:1,2019-08-07T14:35:00,27.1690,-82.9260,29.63,11111222 
COMPS,ioos:station:USF.COMPS:C10:1,2019-08-07T15:35:00,27.1690,-82.9260,29.52,11111222 
COMPS,ioos:station:USF.COMPS:C10:1,2019-08-07T16:35:00,27.1690,-82.9260,29.56,11111222 
COMPS,ioos:station:USF.COMPS:C10:1,2019-08-07T17:35:00,27.1690,-82.9260,29.7,11111222 
COMPS,ioos:station:USF.COMPS:C10:1,2019-08-07T18:35:00,27.1690,-82.9260,29.73,11111222 
COMPS,ioos:station:USF.COMPS:C10:1,2019-08-07T19:35:00,27.1690,-82.9260,29.71,11111222 
COMPS,ioos:station:USF.COMPS:C10:1,2019-08-07T20:35:00,27.1690,-82.9260,29.35,11111222 
COMPS,ioos:station:USF.COMPS:C10:1,2019-08-07T21:35:00,27.1690,-82.9260,29.79,11111222 
COMPS,ioos:station:USF.COMPS:C10:1,2019-08-07T22:35:00,27.1690,-82.9260,28.15,11111222 
COMPS,ioos:station:USF.COMPS:C10:1,2019-08-07T23:35:00,27.1690,-82.9260,28.27,11111222 
COMPS,ioos:station:USF.COMPS:C10:1,2019-08-08T00:35:00,27.1690,-82.9260,27.86,11111222 
COMPS,ioos:station:USF.COMPS:C10:1,2019-08-08T01:35:00,27.1690,-82.9260,28.96,11111222 
COMPS,ioos:station:USF.COMPS:C10:1,2019-08-08T02:35:00,27.1690,-82.9260,28.81,11111222 
COMPS,ioos:station:USF.COMPS:C10:1,2019-08-08T03:35:00,27.1690,-82.9260,29.0,11111222 
COMPS,ioos:station:USF.COMPS:C10:1,2019-08-08T06:35:00,27.1690,-82.9260,29.14,11111222 
COMPS,ioos:station:USF.COMPS:C10:1,2019-08-08T07:35:00,27.1690,-82.9260,29.19,11111222 
COMPS,ioos:station:USF.COMPS:C10:1,2019-08-08T08:35:00,27.1690,-82.9260,29.14,11111222 
COMPS,ioos:station:USF.COMPS:C10:1,2019-08-08T09:35:00,27.1690,-82.9260,29.13,11111222 
COMPS,ioos:station:USF.COMPS:C10:1,2019-08-08T10:35:00,27.1690,-82.9260,29.09,11111222 
COMPS,ioos:station:USF.COMPS:C10:1,2019-08-08T11:35:00,27.1690,-82.9260,29.06,11111222 
COMPS,ioos:station:USF.COMPS:C10:1,2019-08-08T12:35:00,27.1690,-82.9260,29.21,11111222 
COMPS,ioos:station:USF.COMPS:C10:1,2019-08-08T13:35:00,27.1690,-82.9260,29.42,11111222 
COMPS,ioos:station:USF.COMPS:C10:1,2019-08-08T14:35:00,27.1690,-82.9260,29.51,11111222 
COMPS,ioos:station:USF.COMPS:C10:1,2019-08-08T15:35:00,27.1690,-82.9260,29.68,11111222 
COMPS,ioos:station:USF.COMPS:C10:1,2019-08-08T16:35:00,27.1690,-82.9260,29.74,11111222 
COMPS,ioos:station:USF.COMPS:C10:1,2019-08-08T17:35:00,27.1690,-82.9260,29.9,11111222 
COMPS,ioos:station:USF.COMPS:C10:1,2019-08-08T18:35:00,27.1690,-82.9260,30.03,11111222 
COMPS,ioos:station:USF.COMPS:C10:1,2019-08-08T19:35:00,27.1690,-82.9260,29.87,11111222 
COMPS,ioos:station:USF.COMPS:C10:1,2019-08-08T20:35:00,27.1690,-82.9260,29.67,11111222 
COMPS,ioos:station:USF.COMPS:C10:1,2019-08-08T21:35:00,27.1690,-82.9260,29.9,11111222 
COMPS,ioos:station:USF.COMPS:C10:1,2019-08-08T22:35:00,27.1690,-82.9260,29.48,11111222 
COMPS,ioos:station:USF.COMPS:C10:1,2019-08-08T23:35:00,27.1690,-82.9260,29.38,11111222 
COMPS,ioos:station:USF.COMPS:C10:1,2019-08-09T00:35:00,27.1690,-82.9260,29.05,11111222 
COMPS,ioos:station:USF.COMPS:C10:1,2019-08-09T01:35:00,27.1690,-82.9260,28.82,11111222 
COMPS,ioos:station:USF.COMPS:C10:1,2019-08-09T02:35:00,27.1690,-82.9260,28.76,11111222 
COMPS,ioos:station:USF.COMPS:C10:1,2019-08-09T03:35:00,27.1690,-82.9260,29.01,11111222 
COMPS,ioos:station:USF.COMPS:C10:1,2019-08-09T04:35:00,27.1690,-82.9260,29.31,11111222 
COMPS,ioos:station:USF.COMPS:C10:1,2019-08-09T05:35:00,27.1690,-82.9260,29.45,11111222 
COMPS,ioos:station:USF.COMPS:C10:1,2019-08-09T06:35:00,27.1690,-82.9260,29.26,11111222 
COMPS,ioos:station:USF.COMPS:C10:1,2019-08-09T07:35:00,27.1690,-82.9260,29.29,11111222 
COMPS,ioos:station:USF.COMPS:C10:1,2019-08-09T08:35:00,27.1690,-82.9260,29.37,11111222 
COMPS,ioos:station:USF.COMPS:C10:1,2019-08-09T09:35:00,27.1690,-82.9260,29.3,11111222 
COMPS,ioos:station:USF.COMPS:C10:1,2019-08-09T10:35:00,27.1690,-82.9260,29.21,11111222 
COMPS,ioos:station:USF.COMPS:C10:1,2019-08-09T11:35:00,27.1690,-82.9260,29.25,11111222 
COMPS,ioos:station:USF.COMPS:C10:1,2019-08-09T12:35:00,27.1690,-82.9260,29.54,11111222 
COMPS,ioos:station:USF.COMPS:C10:1,2019-08-09T13:35:00,27.1690,-82.9260,29.64,11111222 
COMPS,ioos:station:USF.COMPS:C10:1,2019-08-09T14:35:00,27.1690,-82.9260,29.77,11111222 
COMPS,ioos:station:USF.COMPS:C10:1,2019-08-09T15:35:00,27.1690,-82.9260,29.56,11111222 
COMPS,ioos:station:USF.COMPS:C10:1,2019-08-09T16:35:00,27.1690,-82.9260,29.38,11111222 
COMPS,ioos:station:USF.COMPS:C10:1,2019-08-09T17:35:00,27.1690,-82.9260,29.85,11111222 
COMPS,ioos:station:USF.COMPS:C10:1,2019-08-09T18:35:00,27.1690,-82.9260,29.63,11111222 
COMPS,ioos:station:USF.COMPS:C10:1,2019-08-09T19:35:00,27.1690,-82.9260,29.08,11111222 
COMPS,ioos:station:USF.COMPS:C10:1,2019-08-09T20:35:00,27.1690,-82.9260,29.35,11111222 
COMPS,ioos:station:USF.COMPS:C10:1,2019-08-09T21:35:00,27.1690,-82.9260,29.9,11111222 
COMPS,ioos:station:USF.COMPS:C10:1,2019-08-09T22:35:00,27.1690,-82.9260,29.9,11111222 
COMPS,ioos:station:USF.COMPS:C10:1,2019-08-09T23:35:00,27.1690,-82.9260,30.1,11111222 
COMPS,ioos:station:USF.COMPS:C10:1,2019-08-10T00:35:00,27.1690,-82.9260,29.88,11111222 
COMPS,ioos:station:USF.COMPS:C10:1,2019-08-10T01:35:00,27.1690,-82.9260,29.95,11111222 
COMPS,ioos:station:USF.COMPS:C10:1,2019-08-10T02:35:00,27.1690,-82.9260,29.69,11111222 
COMPS,ioos:station:USF.COMPS:C10:1,2019-08-10T04:35:00,27.1690,-82.9260,29.4,11111222 
COMPS,ioos:station:USF.COMPS:C10:1,2019-08-10T05:35:00,27.1690,-82.9260,29.1,11111222 
COMPS,ioos:station:USF.COMPS:C10:1,2019-08-10T06:35:00,27.1690,-82.9260,29.43,11111222 
COMPS,ioos:station:USF.COMPS:C10:1,2019-08-10T07:35:00,27.1690,-82.9260,29.46,11111222 
COMPS,ioos:station:USF.COMPS:C10:1,2019-08-10T08:35:00,27.1690,-82.9260,29.24,11111222 
COMPS,ioos:station:USF.COMPS:C10:1,2019-08-10T09:35:00,27.1690,-82.9260,29.29,11111222 
COMPS,ioos:station:USF.COMPS:C10:1,2019-08-10T10:35:00,27.1690,-82.9260,29.46,11111222 
COMPS,ioos:station:USF.COMPS:C10:1,2019-08-10T11:35:00,27.1690,-82.9260,29.08,11111222 
COMPS,ioos:station:USF.COMPS:C10:1,2019-08-10T12:35:00,27.1690,-82.9260,29.78,11111222 
COMPS,ioos:station:USF.COMPS:C10:1,2019-08-10T13:35:00,27.1690,-82.9260,29.49,11111222 
COMPS,ioos:station:USF.COMPS:C10:1,2019-08-10T14:35:00,27.1690,-82.9260,28.34,11111222 
COMPS,ioos:station:USF.COMPS:C10:1,2019-08-10T15:35:00,27.1690,-82.9260,28.65,11111222 
COMPS,ioos:station:USF.COMPS:C10:1,2019-08-10T16:35:00,27.1690,-82.9260,26.37,11111222 
COMPS,ioos:station:USF.COMPS:C10:1,2019-08-10T17:35:00,27.1690,-82.9260,27.45,11111222 
COMPS,ioos:station:USF.COMPS:C10:1,2019-08-10T18:35:00,27.1690,-82.9260,26.97,11111222 
COMPS,ioos:station:USF.COMPS:C10:1,2019-08-10T19:35:00,27.1690,-82.9260,28.39,11111222 
COMPS,ioos:station:USF.COMPS:C10:1,2019-08-10T20:35:00,27.1690,-82.9260,29.16,11111222 
COMPS,ioos:station:USF.COMPS:C10:1,2019-08-10T21:35:00,27.1690,-82.9260,29.37,11111222 
COMPS,ioos:station:USF.COMPS:C10:1,2019-08-10T22:35:00,27.1690,-82.9260,29.81,11111222 
COMPS,ioos:station:USF.COMPS:C10:1,2019-08-10T23:35:00,27.1690,-82.9260,29.63,11111222 
COMPS,ioos:station:USF.COMPS:C10:1,2019-08-11T00:35:00,27.1690,-82.9260,29.77,11111222 
COMPS,ioos:station:USF.COMPS:C10:1,2019-08-11T01:35:00,27.1690,-82.9260,29.76,11111222 
COMPS,ioos:station:USF.COMPS:C10:1,2019-08-11T02:35:00,27.1690,-82.9260,29.79,11111222 
COMPS,ioos:station:USF.COMPS:C10:1,2019-08-11T03:35:00,27.1690,-82.9260,29.63,11111222 
COMPS,ioos:station:USF.COMPS:C10:1,2019-08-11T04:35:00,27.1690,-82.9260,29.76,11111222 
COMPS,ioos:station:USF.COMPS:C10:1,2019-08-11T05:35:00,27.1690,-82.9260,29.67,11111222 
COMPS,ioos:station:USF.COMPS:C10:1,2019-08-11T06:35:00,27.1690,-82.9260,29.58,11111222 
COMPS,ioos:station:USF.COMPS:C10:1,2019-08-11T08:35:00,27.1690,-82.9260,29.42,11111222 
COMPS,ioos:station:USF.COMPS:C10:1,2019-08-11T09:35:00,27.1690,-82.9260,29.42,11111222 
COMPS,ioos:station:USF.COMPS:C10:1,2019-08-11T10:35:00,27.1690,-82.9260,29.44,11111222 
COMPS,ioos:station:USF.COMPS:C10:1,2019-08-11T11:35:00,27.1690,-82.9260,29.52,11111222 
COMPS,ioos:station:USF.COMPS:C10:1,2019-08-11T12:35:00,27.1690,-82.9260,29.73,11111222 
COMPS,ioos:station:USF.COMPS:C10:1,2019-08-11T13:35:00,27.1690,-82.9260,29.3,11111222 
COMPS,ioos:station:USF.COMPS:C10:1,2019-08-11T14:35:00,27.1690,-82.9260,29.48,11111222 
COMPS,ioos:station:USF.COMPS:C10:1,2019-08-11T15:35:00,27.1690,-82.9260,29.05,11111222 
COMPS,ioos:station:USF.COMPS:C10:1,2019-08-11T16:35:00,27.1690,-82.9260,28.53,11111222 
COMPS,ioos:station:USF.COMPS:C10:1,2019-08-11T17:35:00,27.1690,-82.9260,29.22,11111222 
COMPS,ioos:station:USF.COMPS:C10:1,2019-08-11T18:35:00,27.1690,-82.9260,29.3,11111222 
COMPS,ioos:station:USF.COMPS:C10:1,2019-08-11T19:35:00,27.1690,-82.9260,29.16,11111222 
COMPS,ioos:station:USF.COMPS:C10:1,2019-08-11T20:35:00,27.1690,-82.9260,29.23,11111222 
COMPS,ioos:station:USF.COMPS:C10:1,2019-08-11T21:35:00,27.1690,-82.9260,29.14,11111222 
COMPS,ioos:station:USF.COMPS:C10:1,2019-08-11T22:35:00,27.1690,-82.9260,29.51,11111222 
COMPS,ioos:station:USF.COMPS:C10:1,2019-08-11T23:35:00,27.1690,-82.9260,29.7,11111222 
COMPS,ioos:station:USF.COMPS:C10:1,2019-08-12T06:35:00,27.1690,-82.9260,29.42,11111222 
COMPS,ioos:station:USF.COMPS:C10:1,2019-08-12T09:35:00,27.1690,-82.9260,29.28,11111222 
COMPS,ioos:station:USF.COMPS:C10:1,2019-08-12T12:35:00,27.1690,-82.9260,29.4,11111222 
COMPS,ioos:station:USF.COMPS:C10:1,2019-08-12T14:35:00,27.1690,-82.9260,29.63,11111222 
COMPS,ioos:station:USF.COMPS:C10:1,2019-08-12T15:35:00,27.1690,-82.9260,29.79,11111222 
COMPS,ioos:station:USF.COMPS:C10:1,2019-08-12T16:35:00,27.1690,-82.9260,29.83,11111222 
COMPS,ioos:station:USF.COMPS:C10:1,2019-08-12T17:35:00,27.1690,-82.9260,28.55,11111222 
COMPS,ioos:station:USF.COMPS:C10:1,2019-08-12T18:35:00,27.1690,-82.9260,27.52,11111222 
COMPS,ioos:station:USF.COMPS:C10:1,2019-08-12T19:35:00,27.1690,-82.9260,28.43,11111222 
COMPS,ioos:station:USF.COMPS:C10:1,2019-08-12T20:35:00,27.1690,-82.9260,29.19,11111222 
COMPS,ioos:station:USF.COMPS:C10:1,2019-08-12T21:35:00,27.1690,-82.9260,29.56,11111222 
COMPS,ioos:station:USF.COMPS:C10:1,2019-08-12T22:35:00,27.1690,-82.9260,29.8,11111222 
COMPS,ioos:station:USF.COMPS:C10:1,2019-08-12T23:35:00,27.1690,-82.9260,29.76,11111222 
COMPS,ioos:station:USF.COMPS:C10:1,2019-08-13T00:35:00,27.1690,-82.9260,29.57,11111222 
COMPS,ioos:station:USF.COMPS:C10:1,2019-08-13T01:35:00,27.1690,-82.9260,29.64,11111222 
COMPS,ioos:station:USF.COMPS:C10:1,2019-08-13T02:35:00,27.1690,-82.9260,29.5,11111222 
COMPS,ioos:station:USF.COMPS:C10:1,2019-08-13T03:35:00,27.1690,-82.9260,29.35,11111222 
COMPS,ioos:station:USF.COMPS:C10:1,2019-08-13T04:35:00,27.1690,-82.9260,29.61,11111222 
COMPS,ioos:station:USF.COMPS:C10:1,2019-08-13T06:35:00,27.1690,-82.9260,29.63,11111222 
COMPS,ioos:station:USF.COMPS:C10:1,2019-08-13T08:35:00,27.1690,-82.9260,29.04,11111222 
COMPS,ioos:station:USF.COMPS:C10:1,2019-08-13T09:35:00,27.1690,-82.9260,28.61,11111222 
COMPS,ioos:station:USF.COMPS:C10:1,2019-08-13T11:35:00,27.1690,-82.9260,28.7,11111222 
COMPS,ioos:station:USF.COMPS:C10:1,2019-08-13T12:35:00,27.1690,-82.9260,28.72,11111222 
COMPS,ioos:station:USF.COMPS:C10:1,2019-08-13T13:35:00,27.1690,-82.9260,26.97,11111222 
COMPS,ioos:station:USF.COMPS:C10:1,2019-08-13T14:35:00,27.1690,-82.9260,27.93,11111222 
COMPS,ioos:station:USF.COMPS:C10:1,2019-08-13T15:35:00,27.1690,-82.9260,28.63,11111222 
COMPS,ioos:station:USF.COMPS:C10:1,2019-08-13T16:35:00,27.1690,-82.9260,29.23,11111222 
COMPS,ioos:station:USF.COMPS:C10:1,2019-08-13T17:35:00,27.1690,-82.9260,29.77,11111222 
COMPS,ioos:station:USF.COMPS:C10:1,2019-08-13T18:35:00,27.1690,-82.9260,28.85,11111222 